FW0916 Weather Reports


Display with metric or nautical units.
time (UTC)temp
F
wind
direction
speed
MPH
gust
MPH
rain 1hr
in
rain 24hr
in
rain mn
in
humidity
%
barometer
mb
20260508011519 48 218 2.0 4.0 0.00 0.92 0.92 94 1001.7
20260508010023 48 212 2.0 5.0 0.00 0.92 0.92 94 1002.0
20260508004516 49 245 2.0 6.0 0.00 0.92 0.92 94 1002.4
20260508003015 48 213 2.0 6.0 0.00 0.92 0.92 94 1002.2
20260508001515 48 191 1.0 5.0 0.00 0.92 0.92 94 1002.1
20260508000014 48 232 1.0 6.0 0.00 0.92 0.92 94 1002.4
20260507234514 48 225 1.0 5.0 0.00 0.92 0.92 94 1002.2
20260507233014 49 225 2.0 8.0 0.00 0.92 0.92 94 1002.3
20260507231517 48 191 2.0 5.0 0.00 0.92 0.92 94 1002.6
20260507230013 48 224 3.0 8.0 0.00 0.92 0.92 93 1002.9
20260507224511 48 136 0.0 9.0 0.00 0.92 0.92 93 1002.3
20260507223012 48 184 4.0 7.0 0.01 0.92 0.92 93 1002.8
20260507221511 48 169 5.0 11.0 0.01 0.92 0.92 93 1002.9
20260507220011 48 153 6.0 12.0 0.01 0.92 0.92 93 1002.9
20260507214510 47 207 3.0 8.0 0.02 0.92 0.92 93 1003.1
20260507213011 47 217 3.0 13.0 0.07 0.91 0.91 93 1003.3
20260507211509 47 178 7.0 18.0 0.15 0.91 0.91 93 1002.0
20260507210005 48 132 4.0 12.0 0.24 0.91 0.91 93 1003.0
20260507204503 48 135 3.0 10.0 0.35 0.91 0.91 93 1003.7
20260507203059 49 207 4.0 8.0 0.39 0.84 0.84 93 1003.9
20260507201604 49 88 0.0 4.0 0.42 0.76 0.76 92 1004.4
20260507200056 50 257 5.0 13.0 0.39 0.67 0.67 92 1005.0
20260507194559 50 181 5.0 11.0 0.35 0.56 0.56 92 1005.1
20260507193052 50 169 3.0 22.0 0.32 0.46 0.46 92 1004.6
20260507191610 50 167 10.0 17.0 0.24 0.35 0.35 92 1004.7
20260507190048 50 183 6.0 17.0 0.18 0.28 0.28 92 1005.1
20260507184556 51 181 6.0 17.0 0.12 0.21 0.21 92 1005.6
20260507183047 51 178 5.0 17.0 0.04 0.13 0.13 92 1005.7
20260507181543 51 185 8.0 17.0 0.02 0.11 0.11 91 1005.3
20260507180043 51 157 4.0 16.0 0.01 0.10 0.10 90 1005.4
20260507174542 52 209 10.0 16.0 0.00 0.09 0.09 90 1005.7
20260507173039 53 157 9.0 21.0 0.00 0.09 0.09 90 1005.9
20260507171537 53 219 6.0 15.0 0.00 0.09 0.09 90 1006.2
20260507170036 53 123 6.0 19.0 0.00 0.09 0.09 91 1006.4
20260507164543 52 190 6.0 18.0 0.00 0.09 0.09 91 1006.7
20260507163036 52 175 8.0 17.0 0.00 0.09 0.09 90 1007.2
20260507161529 53 221 5.0 16.0 0.00 0.09 0.09 90 1007.9
20260507160033 53 154 5.0 17.0 0.00 0.09 0.09 91 1008.0
20260507154526 53 207 8.0 18.0 0.00 0.09 0.09 91 1008.4
20260507153023 53 135 5.0 18.0 0.00 0.09 0.09 91 1008.7
20260507151522 53 210 7.0 14.0 0.00 0.09 0.09 91 1009.1
20260507150022 52 209 7.0 16.0 0.00 0.09 0.09 91 1009.4
20260507144518 52 193 4.0 12.0 0.00 0.09 0.09 92 1009.7
20260507143031 52 181 4.0 13.0 0.00 0.09 0.09 92 1010.1
20260507141512 52 209 8.0 16.0 0.00 0.09 0.09 92 1010.5
20260507140011 52 202 5.0 17.0 0.00 0.09 0.09 92 1010.7
20260507134512 52 188 6.0 14.0 0.00 0.09 0.09 92 1010.5
20260507133010 51 196 7.0 22.0 0.00 0.09 0.09 92 1011.1
20260507131511 51 128 7.0 19.0 0.00 0.09 0.09 92 1010.9
20260507130021 51 175 11.0 19.0 0.01 0.09 0.09 92 1010.8
20260507124505 50 172 9.0 20.0 0.01 0.09 0.09 92 1010.7
20260507123002 50 149 11.0 20.0 0.01 0.09 0.09 92 1011.0
20260507121600 51 161 8.0 17.0 0.01 0.09 0.09 92 1011.7
20260507120058 51 178 10.0 20.0 0.00 0.09 0.09 92 1011.7
20260507114559 52 198 7.0 18.0 0.00 0.09 0.09 93 1012.4
20260507113056 52 194 8.0 19.0 0.00 0.09 0.09 93 1012.2
20260507111555 51 142 7.0 17.0 0.00 0.09 0.09 93 1012.5
20260507110055 50 179 7.0 16.0 0.00 0.09 0.09 93 1012.0
20260507104556 50 169 6.0 12.0 0.00 0.09 0.09 92 1012.5
20260507103047 50 146 5.0 10.0 0.00 0.09 0.09 92 1012.9
20260507101546 50 179 5.0 11.0 0.00 0.09 0.09 92 1012.9
20260507100053 51 163 5.0 13.0 0.00 0.09 0.09 92 1012.9
20260507094541 51 107 3.0 7.0 0.01 0.09 0.09 92 1013.0
20260507093040 51 203 7.0 17.0 0.02 0.09 0.09 92 1013.3
20260507091541 52 173 6.0 17.0 0.04 0.09 0.09 92 1013.1
20260507090043 52 175 5.0 18.0 0.06 0.09 0.09 93 1013.2
20260507084543 52 200 4.0 16.0 0.06 0.08 0.08 93 1013.2
20260507083035 51 155 6.0 14.0 0.06 0.06 0.06 93 1013.3
20260507081534 51 183 5.0 12.0 0.05 0.05 0.05 93 1013.3
20260507080032 50 179 1.0 8.0 0.03 0.03 0.03 92 1013.5
20260507074530 50 205 1.0 6.0 0.02 0.02 0.02 92 1014.0
20260507073031 50 184 2.0 9.0 0.01 0.01 0.01 92 1014.3
20260507071534 50 186 6.0 15.0 0.00 0.00 0.00 92 1014.3
20260507070032 51 115 7.0 14.0 0.00 0.00 0.00 92 1014.2
20260507064535 51 205 4.0 9.0 0.00 0.00 0.00 92 1014.5
20260507063022 51 229 4.0 9.0 0.00 0.00 0.00 92 1014.5
20260507061520 51 196 3.0 6.0 0.00 0.00 0.00 92 1014.8
20260507060018 51 180 4.0 11.0 0.00 0.00 0.00 92 1015.1
20260507054516 51 225 0.0 2.0 0.00 0.00 0.00 92 1015.2
20260507053013 51 231 1.0 5.0 0.00 0.00 0.00 92 1015.5
20260507051512 51 178 2.0 5.0 0.00 0.00 0.00 92 1015.7
20260507050029 51 229 2.0 6.0 0.00 0.00 0.00 92 1016.4
20260507044508 51 200 2.0 5.0 0.00 0.00 0.00 92 1016.4
20260507043106 51 231 3.0 7.0 0.00 0.00 0.00 92 1016.8
20260507041510 51 213 3.0 7.0 0.00 0.00 0.00 92 1017.0
20260507040001 51 169 4.0 9.0 0.00 0.00 0.00 92 1017.2
20260507034559 51 231 3.0 8.0 0.00 0.00 0.00 91 1017.5
20260507033057 51 195 3.0 10.0 0.00 0.00 0.00 91 1017.6
20260507031555 51 219 6.0 12.0 0.00 0.00 0.00 91 1017.7
20260507030052 52 218 5.0 14.0 0.00 0.00 0.00 90 1018.0
20260507024552 53 215 3.0 14.0 0.00 0.00 0.00 90 1018.0
20260507023051 53 227 6.0 11.0 0.00 0.00 0.00 90 1018.2
20260507021550 54 206 6.0 10.0 0.00 0.00 0.00 90 1018.3
20260507014557 54 233 3.0 7.0 0.00 0.00 0.00 89 1018.4
20260507013049 53 206 5.0 14.0 0.00 0.00 0.00 89 1018.5